Location: Arhansus
(43.2576°N, 1.0354°W)
Time: 10:15:24
(UTC+00:00)

Daily predictions for brighter satellites

Satellite Brightness Start Highest point End
(mag) Time Altitude Azimuth Time Altitude Azimuth Time Altitude Azimuth
ADEOS 4.3 19:45:22 10° SE 19:50:05 36° ENE 19:54:49 10° N
USA 306 3.2 19:48:05 10° WSW 19:51:43 49° NW 19:54:27 10° NE
IRAS Rocket 4.3 19:46:32 10° SSE 19:51:56 66° ENE 19:57:23 10° N
Cosmos 1302 Rocket 4.5 19:47:15 10° S 19:51:58 38° ESE 19:56:45 10° NE
Cosmos 724 4.3 19:51:29 10° SSW 19:57:31 77° ESE 20:03:28 10° NE
CZ-4C R/B 2.3 19:53:52 10° SW 19:57:53 62° NW 20:02:58 10° NNE
Cosmos 2016 Rocket 4.4 19:52:08 10° SSE 19:58:01 45° E 20:03:51 10° NNE
SL-16 R/B 4.1 19:54:36 10° N 19:58:12 17° NE 20:01:47 10° E
Cosmos 2173 Rocket 4.0 19:52:12 10° S 19:58:18 77° E 20:04:33 10° N
Meteor 1-31 Rocket 2.5 19:59:54 10° SSE 20:03:22 86° WSW 20:06:50 10° NNW
SL-08 R/B 3.9 20:00:33 10° NNE 20:04:59 36° E 20:09:19 10° SSE
DELTA 2 R/B (1) 3.8 20:02:06 10° WSW 20:07:30 52° SSE 20:12:53 10° E
Cosmos 1816 Rocket 4.5 20:01:30 10° N 20:07:38 70° E 20:13:46 10° SSE
COSMOS 2406 4.2 20:03:27 10° SSE 20:08:03 25° ESE 20:12:39 10° NE
Terra 1.9 20:06:48 10° SSE 20:11:26 64° ENE 20:16:05 10° N
NOSS 3-3 (C) 3.9 20:08:11 10° S 20:12:55 42° ESE 20:18:22 10° NE
Helios 1A Rocket 2.1 20:10:11 10° NNE 20:13:20 71° ESE 20:16:28 10° S
BREEZE-M DEB (TANK) 3.6 20:11:53 10° W 20:14:13 34° SSW 20:18:22 11° SE
CZ-4 R/B 1.5 20:10:59 10° S 20:14:33 64° WSW 20:18:10 10° NNW
Cosmos 1743 2.3 20:11:52 10° N 20:14:48 49° E 20:17:25 12° SSE
CZ-4B R/B 4.4 20:11:03 10° S 20:15:00 60° W 20:19:00 10° NNW
Cosmos 1980 Rocket 2.2 20:10:11 10° NNW 20:15:55 84° ENE 20:21:35 10° SSE
Cosmos 1850 Rocket 4.1 20:11:30 10° NNW 20:16:40 78° WSW 20:21:50 10° SSE
Sich 1 Rocket 4.0 20:13:11 10° SSW 20:17:30 66° W 20:21:52 10° N
MetOp-B 4.1 20:14:34 10° SSE 20:19:54 76° ENE 20:25:16 10° N
Delta 2 Rocket 4.3 20:18:24 10° SSW 20:20:20 15° S 20:21:01 14° SSE
Cosmos 2333 Rocket 3.8 20:19:23 10° N 20:23:48 22° NE 20:28:05 10° E
CBERS 1 LM4 rocket 4.5 20:20:01 10° SSE 20:24:56 86° ENE 20:30:07 10° NNW
Cosmos 2061 Rocket 4.3 20:22:30 10° SSE 20:28:25 48° E 20:34:24 10° NNE
Cosmos 1782 2.4 20:26:18 10° S 20:29:47 75° E 20:33:18 10° NNE
Cosmos 1607 4.2 20:31:52 10° SW 20:37:59 72° NW 20:44:15 10° NNE
CZ-4B R/B 3.4 20:33:53 10° S 20:39:32 79° WSW 20:45:11 10° NNW
Ariane Rocket 4.3 20:37:06 15° ESE 20:39:58 25° ENE 20:44:03 10° N
BREEZE-M DEB (TANK) 3.3 20:37:02 10° WNW 20:40:04 76° SSW 20:45:49 17° SE
Cosmos 1802 Rocket 4.2 20:34:13 10° SSW 20:40:23 74° W 20:46:33 10° N
Cosmos 2360 Rocket 4.0 20:37:33 10° N 20:41:27 19° NE 20:45:20 10° E
Spot 2 Rocket 3.5 20:41:16 16° SSE 20:45:13 72° ENE 20:50:14 10° N
ERS-1 Rocket 3.9 20:49:28 10° S 20:54:14 44° W 20:59:02 10° NNW
Cosmos 2219 Rocket 4.3 20:52:05 10° N 20:55:24 16° NE 20:58:44 10° E
Okean O Rocket 1.5 20:52:45 21° SSE 20:55:34 84° ENE 20:59:53 10° NNW
Cosmos 2151 3.7 20:52:04 10° N 20:55:50 34° ENE 20:57:14 26° ESE
Gbstr 26 Del rocket 3.7 20:52:40 10° WNW 20:57:28 45° SW 20:59:39 24° SSE
Cosmos 1455 Rocket 4.3 20:53:23 10° SSW 20:57:35 42° WNW 21:01:46 10° N
ATLAS 3B R/B 4.2 20:53:09 10° NW 20:59:49 34° WSW 21:06:04 10° S
Cosmos 1461 2.6 20:56:16 10° SSW 20:59:53 52° ESE 21:03:29 10° NE
CZ-2C R/B 4.1 21:01:38 15° ENE 21:01:38 15° ENE 21:03:05 10° NNE
USA 305 3.5 21:03:02 10° WNW 21:06:43 34° SW 21:07:56 27° S
MOS 1-B 4.4 21:03:50 19° SSE 21:08:08 82° WSW 21:13:59 10° NNW
Cosmos 1992 Rocket 4.1 21:03:40 10° SSW 21:08:52 79° WNW 21:14:06 10° NNE
USA 186 1.6 21:09:07 46° SSW 21:09:41 63° W 21:12:24 10° NNW
CZ-4B R/B 3.8 21:07:48 28° SE 21:09:50 45° ENE 21:14:26 10° N
Cosmos 2233 Rocket 4.3 21:04:10 10° SSW 21:10:20 69° W 21:16:29 10° N
Cosmos 1437 Rocket 2.6 21:09:58 42° SE 21:10:45 53° E 21:14:15 10° NNE
Cosmos 1544 Rocket 3.4 21:08:29 26° S 21:10:53 69° E 21:15:11 10° NNE
Cosmos 2237 4.3 21:05:30 10° NNW 21:11:15 79° WSW 21:14:39 26° SSE
Cosmos 2322 Rocket 3.3 21:07:57 10° N 21:12:58 31° NE 21:15:45 21° E
Cosmos 2082 Rocket 3.2 21:08:19 10° SW 21:13:49 48° WNW 21:19:21 10° NNE
Cosmos 2228 4.1 21:10:07 10° SSW 21:14:01 41° WNW 21:17:55 10° N
Okean-O 2.9 21:12:28 22° S 21:15:09 62° W 21:19:30 10° NNW
Cosmos 2369 4.1 21:13:08 10° NNW 21:18:45 60° WSW 21:22:12 24° S
IRS-1C Rocket 4.2 21:20:12 32° SE 21:22:30 60° ENE 21:27:42 10° N
ISS -1.1 21:20:29 10° WNW 21:23:04 20° N 21:25:38 10° NE
CZ-4B R/B 2.2 21:29:25 67° SSE 21:29:49 87° E 21:33:15 10° NNW
Nadezhda 4 Rocket 4.5 21:24:22 10° N 21:30:12 44° ENE 21:32:26 32° ESE
Cosmos 1758 Rocket 3.6 21:26:18 10° NNW 21:30:42 76° W 21:32:25 37° S
USA 290 4.5 21:33:39 15° NE 21:33:39 15° NE 21:34:24 10° NE
Cosmos 2084 Rocket 4.5 21:29:22 10° NW 21:33:12 35° WSW 21:34:28 28° SSW
Cosmos 1486 Rocket 4.4 21:30:29 10° N 21:35:36 50° ENE 21:37:16 37° ESE
Cosmos 2278 3.8 21:32:23 10° NNW 21:38:05 65° ENE 21:40:11 39° SE
SL-16 R/B 2.1 21:37:23 10° NNW 21:43:06 90° ENE 21:45:09 42° SSE
Cosmos 1825 Rocket 4.1 21:40:16 10° N 21:44:24 41° ENE 21:44:44 40° E
Terra 4.3 21:46:58 10° WSW 21:49:22 14° W 21:51:48 10° WNW
COSMOS 2406 4.1 21:46:24 10° SW 21:51:58 50° WNW 21:57:34 10° NNE
DELTA 2 R/B (1) 3.6 21:48:06 10° W 21:53:34 58° S 21:54:35 50° SE
Cosmos 1602 Rocket 3.6 21:50:50 10° NNW 21:55:08 73° W 21:55:55 56° SSW
Cosmos 1933 4.1 21:54:10 32° SW 21:55:25 44° WNW 21:59:05 10° N
Cosmos 540 Rocket 3.7 21:58:20 46° ESE 21:58:25 46° ESE 22:03:20 10° NNE
Cosmos 2333 Rocket 2.4 22:02:55 10° NNW 22:08:35 65° WSW 22:10:06 47° S
Cosmos 1805 3.7 22:05:34 10° NNW 22:08:08 47° NW 22:08:08 47° NW
Cosmos 1833 4.1 22:11:32 55° SSE 22:12:38 68° ESE 22:18:14 10° NNE
Cosmos 2098 Rocket 3.6 22:11:54 40° SW 22:13:23 58° W 22:17:42 10° N
Geosat 3.8 22:09:15 10° NNE 22:14:15 68° ESE 22:14:40 64° SSE
Cosmos 1464 Rocket 4.0 22:13:35 36° SSW 22:16:16 74° W 22:22:27 10° N
Ariane Rocket 3.8 22:17:10 34° SW 22:18:36 42° W 22:23:24 10° NNW
NOSS 3-4 (A) 3.8 22:12:30 10° NW 22:19:25 89° NE 22:22:14 44° SE
Cosmos 1076 Rocket 3.5 22:15:12 10° N 22:19:11 70° NE 22:19:11 70° NE
NOSS 3-4 (C) 3.8 22:13:09 10° NW 22:20:05 88° ENE 22:22:54 44° SE
Cosmos 1536 4.3 22:19:12 10° NNE 22:21:26 25° NE 22:21:26 25° NE
Helios 1B rocket 3.7 22:25:59 27° NE 22:25:59 27° NE 22:28:11 10° N
Okean 1 3.9 22:26:39 48° NW 22:26:39 48° NW 22:29:33 10° N
Cosmos 2360 Rocket 2.1 22:20:27 10° NNW 22:26:09 81° WSW 22:27:05 63° S
Cosmos 1606 Rocket 4.0 22:26:13 49° WSW 22:26:44 53° W 22:30:58 10° N
Helios 1A 3.5 22:23:55 10° NNE 22:26:53 48° NE 22:26:53 48° NE
Cosmos 2333 4.1 22:25:43 10° NNW 22:31:28 88° WSW 22:32:21 66° SSE
USA 234 3.9 22:27:13 10° ENE 22:32:06 36° ESE 22:32:06 36° ESE
Cosmos 1726 Rocket 3.9 22:36:11 55° WNW 22:36:11 55° WNW 22:39:56 10° N
Cosmos 1763 Rocket 3.6 22:35:25 54° SW 22:36:33 73° WNW 22:41:50 10° NNE
Cosmos 1092 Rocket 3.9 22:33:03 10° N 22:39:13 72° E 22:40:16 60° SE
Cosmos 2219 Rocket 2.0 22:34:33 10° NNW 22:40:15 82° ENE 22:40:55 70° SE
RESURS DK-1 4.3 22:41:28 10° N 22:44:26 20° NE 22:44:26 20° NE
Cosmos 990 Rocket 3.8 22:42:26 10° NNW 22:47:38 84° WSW 22:47:45 83° SW
Cosmos 2034 Rocket 4.4 22:51:52 39° SW 22:54:01 58° W 23:00:17 10° N
Cosmos 2322 Rocket 2.8 22:51:47 10° NW 22:57:05 42° WSW 22:57:32 41° WSW
ISS -1.4 22:57:53 10° NW 23:00:22 23° N 23:00:22 23° N
Cosmos-2242 3.9 23:06:33 44° NW 23:06:33 44° NW 23:09:58 10° N
Meteor 2-2 Rocket 4.3 23:06:39 60° WSW 23:07:24 68° WNW 23:13:09 10° N
Cosmos 841 Rocket 4.0 23:09:02 46° ENE 23:09:02 46° ENE 23:13:14 10° NNE
Meteor 2-9 Rocket 4.4 23:05:03 10° N 23:10:21 55° ENE 23:10:27 55° E
Cosmos 44 3.5 23:05:46 10° NNW 23:11:09 76° NE 23:11:09 76° NE
CZ-2C R/B 4.1 23:08:32 10° NNE 23:12:13 60° NNE 23:12:13 60° NNE
Cosmos 2279 Rocket 3.8 23:14:25 72° SSE 23:15:04 83° E 23:21:21 10° N
Cosmos 2237 Rocket 3.9 23:10:41 10° N 23:15:18 25° NE 23:17:27 20° E
Cosmos 1634 Rocket 4.1 23:17:33 56° SW 23:18:37 66° W 23:24:47 10° N
CZ-2C R/B 4.0 23:18:46 26° E 23:19:34 27° ENE 23:23:53 10° N
Meteor 1-11 Rocket 4.3 23:15:39 10° N 23:21:03 44° ENE 23:21:21 44° E
COSMOS 2428 2.9 23:18:44 10° NNW 23:24:23 61° ENE 23:24:48 60° E
Cosmos 2227 Rocket 4.3 23:26:17 14° E 23:26:17 14° E 23:28:21 10° ENE
SL-16 R/B 4.4 23:23:59 10° WNW 23:26:17 13° W 23:26:59 12° WSW
ACS3 Solar Sail 3.7 23:24:46 10° NE 23:28:04 15° E 23:28:30 15° E
Cosmos 2221 3.5 23:31:11 43° N 23:31:11 43° N 23:34:05 10° N
Cosmos 372 Rocket 4.1 23:25:48 10° NNW 23:30:22 69° NW 23:30:22 69° NW
SL-08 ROCKET BODY 4.4 23:28:04 10° NNW 23:34:14 73° W 23:34:43 70° SW
Meteor 1-27 Rocket 4.3 23:39:18 46° E 23:39:18 46° E 23:44:42 10° NNE
GP-B 4.1 23:35:32 10° N 23:38:41 41° NE 23:38:41 41° NE
Aureole 1 Rocket 4.3 23:34:49 10° NNW 23:40:38 54° WSW 23:41:00 53° WSW
Spot 4 4.4 23:46:40 51° WNW 23:46:40 51° WNW 23:50:36 10° NNW
Meteor 1-14 Rocket 4.2 23:41:09 10° NNW 23:46:30 69° W 23:46:30 69° W
Cosmos 2266 Rocket 3.8 23:41:22 10° N 23:47:25 75° E 23:47:46 73° ESE
ARIANE 5 R/B 3.6 23:49:14 41° NW 23:49:14 41° NW 23:52:29 10° NNW
Cosmos 1937 Rocket 3.6 23:44:05 10° NNW 23:48:46 72° N 23:48:46 72° N
ALOS 2 3.5 23:50:33 44° NW 23:50:33 44° NW 23:53:46 10° NNW
ARGOS Delta rocket 4.3 23:49:25 10° N 23:54:30 60° WNW 23:54:30 60° WNW
